Powrót do katalogu

METEOR 2-20 DEB

AktywnyPO
NORAD 45524·DEBRIS·🇷🇺 Russia

Wystrzelony Sep 28, 1990 z Plesetsk Cosmodrome

Loading…

Następne Przeloty (najbliższe 24 godziny)

TLE

ŚwieżeSource: Space-Track

Epoka: Sep 11, 2026, 19:21 UTC

1 45524U 90086F   26254.80640701  .00001113  00000-0  74402-3 0  9994
2 45524  82.5224  91.8046 0020877 319.4930  40.4684 14.00099004637443

Śledź METEOR 2-20 DEB w czasie rzeczywistym z AllMySat

Download on the App Store